Truth Or Consequences, NM

11:32 AM MST on November 21, 2017 (GMT -0700)
Truth Or Consequences Municipal

Weather History for KTCS - April, 2014

Change the Weather History Date:

Friday, April 11, 2014

  Actual Average Record
Temperature  
Mean Temperature 68 °F -  
Max Temperature 84 °F 73 °F 84 °F (2002)
Min Temperature 52 °F 43 °F 33 °F (1997)
Degree Days  
Heating Degree Days 0    
Month to date heating degree days  
Since 1 July heating degree days  
Cooling Degree Days 3    
Month to date cooling degree days  
Year to date cooling degree days  
Growing Degree Days 18 (Base 50)    
Moisture  
Dew Point 2 °F    
Average Humidity 7    
Maximum Humidity 14    
Minimum Humidity 4    
Precipitation  
Precipitation 0.00 in - 0.15 in (2004)
Month to date precipitation  
Year to date precipitation  
Sea Level Pressure  
Sea Level Pressure 29.83 in    
Wind  
Wind Speed 9 mph (West)    
Max Wind Speed 24 mph    
Max Gust Speed 34 mph    
Visibility 10 miles    
Events      
T = Trace of Precipitation, MM = Missing Value Source: NWS Daily Summary

Daily Weather History Graph

Daily Weather History Graph

Search for Another Location

Airport or City:

Trip Planner

Search our weather history database for the weather conditions in past years. The results will help you decide how hot, cold, wet, or windy it might be!

Date:

Astronomy

Apr. 11, 2014 Rise Set
Actual Time 6:43 AM MDT 7:36 PM MDT
Civil Twilight 6:18 AM MDT 8:02 PM MDT
Nautical Twilight 5:48 AM MDT 8:32 PM MDT
Astronomical Twilight 5:18 AM MDT 9:02 PM MDT
Moon 4:29 PM MDT (4/11) 4:29 AM MDT (4/11)
Length of Visible Light 13h 43m
Length of Day
12h 52m
Waxing Gibbous, 87% of the Moon is Illuminated
Apr 11
Waxing Gibbous
Apr 15
Full
Apr 22
Last Quarter
Apr 29
New
May 6
First Quarter

Hourly Weather History & Observations

Time (MDT) Temp. Dew Point Humidity Pressure Visibility Wind Dir Wind Speed Gust Speed Precip Events Conditions
12:53 AM 64.0 °F -6.0 °F 6% 29.85 in 10.0 mi NW 4.6 mph - N/A   Clear
1:53 AM 66.0 °F -5.1 °F 6% 29.84 in 10.0 mi Variable 5.8 mph - N/A   Clear
2:53 AM 61.0 °F -2.9 °F 8% 29.84 in 10.0 mi WNW 9.2 mph - N/A   Clear
3:53 AM 61.0 °F -2.0 °F 8% 29.84 in 10.0 mi WNW 10.4 mph - N/A   Clear
4:53 AM 59.0 °F -0.9 °F 9% 29.85 in 10.0 mi West 9.2 mph - N/A   Clear
5:53 AM 55.0 °F -0.9 °F 10% 29.88 in 10.0 mi West 11.5 mph - N/A   Clear
6:53 AM 55.0 °F -0.9 °F 10% 29.88 in 10.0 mi WNW 9.2 mph - N/A   Clear
7:53 AM 60.1 °F 1.0 °F 9% 29.91 in 10.0 mi WNW 11.5 mph - N/A   Clear
8:53 AM 66.0 °F 1.0 °F 8% 29.91 in 10.0 mi NW 5.8 mph - N/A   Clear
9:53 AM 72.0 °F -2.0 °F 5% 29.92 in 10.0 mi NNE 4.6 mph - N/A   Clear
10:53 AM 73.9 °F -0.9 °F 5% 29.92 in 10.0 mi Calm Calm - N/A   Clear
11:53 AM 75.9 °F -2.9 °F 4% 29.89 in 10.0 mi Variable 4.6 mph - N/A   Clear
12:53 PM 77.0 °F -2.9 °F 4% 29.87 in 10.0 mi South 6.9 mph - N/A   Clear
1:53 PM 81.0 °F -0.9 °F 4% 29.81 in 10.0 mi SE 9.2 mph - N/A   Clear
2:53 PM 82.0 °F -0.9 °F 4% 29.78 in 10.0 mi Calm Calm - N/A   Clear
3:53 PM 82.9 °F 6.1 °F 5% 29.73 in 10.0 mi SSE 23.0 mph 34.5 mph N/A   Clear
4:23 PM 82.0 °F 6.1 °F 6% 29.94 in 10.0 mi South 24.2 mph 32.2 mph N/A   Clear
4:46 PM 81.0 °F 3.9 °F 5% 29.94 in 10.0 mi SSW 17.3 mph 27.6 mph N/A   Clear
4:53 PM 80.1 °F 3.0 °F 5% 29.72 in 10.0 mi WSW 8.1 mph 27.6 mph N/A   Clear
5:53 PM 80.1 °F 3.9 °F 5% 29.74 in 10.0 mi West 24.2 mph 31.1 mph N/A   Clear
6:53 PM 78.1 °F 6.1 °F 6% 29.75 in 10.0 mi WSW 13.8 mph 20.7 mph N/A   Clear
7:53 PM 75.9 °F 9.0 °F 8% 29.76 in 10.0 mi West 13.8 mph - N/A   Clear
8:53 PM 72.0 °F 8.1 °F 8% 29.77 in 10.0 mi West 8.1 mph - N/A   Clear
9:53 PM 69.1 °F 10.9 °F 11% 29.77 in 10.0 mi WSW 8.1 mph - N/A   Clear
10:53 PM 66.9 °F 12.0 °F 12% 29.77 in 10.0 mi West 8.1 mph - N/A   Clear
11:53 PM 63.0 °F 12.0 °F 14% 29.77 in 10.0 mi NW 6.9 mph - N/A   Clear